Stündliche Wetter Holschebinka

Heute, 22 Juni, Dienstag

Zeit Temperatur Niederschläge Wind Luftdruck Luftfeuchtigkeit
00:00 +22°C° 0 mm 1 m/S 750 mmHg 80%
01:00 +22°C° 0 mm 1 m/S 750 mmHg 81%
02:00 +21°C° 0 mm 1 m/S 750 mmHg 82%
03:00 +21°C° 0 mm 1 m/S 750 mmHg 81%
04:00 +22°C° 0 mm 1 m/S 751 mmHg 80%
05:00 +22°C° 0 mm 1 m/S 751 mmHg 79%
06:00 +24°C° 0 mm 1 m/S 751 mmHg 72%
07:00 +27°C° 0 mm 2 m/S 751 mmHg 64%
08:00 +28°C° 0 mm 2 m/S 750 mmHg 56%
09:00 +30°C° 0 mm 2 m/S 750 mmHg 50%
10:00 +31°C° 0 mm 3 m/S 750 mmHg 44%
11:00 +34°C° 0 mm 3 m/S 750 mmHg 38%
12:00 +34°C° 0 mm 3 m/S 750 mmHg 36%
13:00 +35°C° 0 mm 3 m/S 750 mmHg 34%
14:00 +36°C° 0 mm 3 m/S 750 mmHg 32%
15:00 +36°C° 0 mm 3 m/S 749 mmHg 34%
16:00 +35°C° 0 mm 3 m/S 749 mmHg 35%
17:00 +35°C° 0 mm 3 m/S 749 mmHg 37%
18:00 +31°C° 0 mm 3 m/S 749 mmHg 47%
19:00 +29°C° 0 mm 2 m/S 749 mmHg 57%
20:00 +26°C° 0 mm 2 m/S 749 mmHg 67%
21:00 +25°C° 0 mm 2 m/S 749 mmHg 69%
22:00 +24°C° 0 mm 2 m/S 750 mmHg 71%
23:00 +23°C° 0 mm 2 m/S 750 mmHg 73%

Morgen, 23 Juni, Mittwoch

Zeit Temperatur Niederschläge Wind Luftdruck Luftfeuchtigkeit
00:00 +23°C° 0 mm 2 m/S 750 mmHg 75%
01:00 +21°C° 0 mm 2 m/S 750 mmHg 77%
02:00 +21°C° 0 mm 2 m/S 750 mmHg 79%
03:00 +21°C° 0 mm 2 m/S 750 mmHg 79%
04:00 +23°C° 0 mm 1 m/S 750 mmHg 79%
05:00 +23°C° 0 mm 1 m/S 751 mmHg 79%
06:00 +25°C° 0 mm 1 m/S 751 mmHg 70%
07:00 +28°C° 0 mm 2 m/S 751 mmHg 61%
08:00 +30°C° 0 mm 2 m/S 751 mmHg 53%
09:00 +31°C° 0 mm 2 m/S 751 mmHg 46%
10:00 +34°C° 0 mm 2 m/S 751 mmHg 40%
11:00 +36°C° 0 mm 3 m/S 751 mmHg 34%
12:00 +36°C° 0 mm 3 m/S 751 mmHg 31%
13:00 +37°C° 0 mm 3 m/S 750 mmHg 29%
14:00 +37°C° 0 mm 3 m/S 750 mmHg 26%
15:00 +37°C° 0 mm 3 m/S 750 mmHg 28%
16:00 +36°C° 0 mm 3 m/S 750 mmHg 31%
17:00 +36°C° 0 mm 3 m/S 750 mmHg 33%
18:00 +33°C° 0 mm 3 m/S 750 mmHg 43%
19:00 +30°C° 0 mm 2 m/S 750 mmHg 53%
20:00 +27°C° 0 mm 2 m/S 750 mmHg 64%
21:00 +26°C° 0 mm 2 m/S 750 mmHg 67%
22:00 +25°C° 0 mm 2 m/S 750 mmHg 71%
23:00 +24°C° 0 mm 2 m/S 750 mmHg 74%

übermorgen, 24 Juni, Donnerstag

Zeit Temperatur Niederschläge Wind Luftdruck Luftfeuchtigkeit
00:00 +24°C° 0 mm 2 m/S 750 mmHg 76%
01:00 +23°C° 0 mm 2 m/S 750 mmHg 78%
02:00 +21°C° 0 mm 2 m/S 750 mmHg 79%
03:00 +23°C° 0 mm 2 m/S 750 mmHg 78%
04:00 +24°C° 0 mm 2 m/S 750 mmHg 77%
05:00 +24°C° 0 mm 2 m/S 750 mmHg 75%
06:00 +26°C° 0 mm 2 m/S 750 mmHg 68%
07:00 +29°C° 0 mm 2 m/S 750 mmHg 61%
08:00 +31°C° 0 mm 2 m/S 750 mmHg 53%
09:00 +32°C° 0 mm 2 m/S 750 mmHg 48%
10:00 +34°C° 0 mm 2 m/S 750 mmHg 42%
11:00 +36°C° 0 mm 2 m/S 750 mmHg 36%
12:00 +36°C° 0 mm 3 m/S 749 mmHg 34%
13:00 +37°C° 0 mm 3 m/S 749 mmHg 32%
14:00 +37°C° 0 mm 3 m/S 749 mmHg 30%
15:00 +35°C° 0.5 mm 3 m/S 748 mmHg 41%
16:00 +32°C° 0.5 mm 4 m/S 748 mmHg 52%
17:00 +28°C° 0.5 mm 4 m/S 747 mmHg 64%
18:00 +26°C° 2.7 mm 4 m/S 748 mmHg 73%
19:00 +23°C° 2.7 mm 4 m/S 749 mmHg 82%
20:00 +20°C° 2.7 mm 4 m/S 749 mmHg 91%
21:00 +20°C° 0.6 mm 3 m/S 749 mmHg 92%
22:00 +20°C° 0.6 mm 2 m/S 749 mmHg 94%
23:00 +20°C° 0.6 mm 1 m/S 748 mmHg 95%

25 Juni, Freitag

Zeit Temperatur Niederschläge Wind Luftdruck Luftfeuchtigkeit
00:00 +20°C° 0.1 mm 1 m/S 748 mmHg 96%
01:00 +20°C° 0.1 mm 1 m/S 748 mmHg 96%
02:00 +19°C° 0.1 mm 2 m/S 748 mmHg 96%
03:00 +20°C° 0 mm 1 m/S 748 mmHg 95%
04:00 +21°C° 0 mm 1 m/S 748 mmHg 94%
05:00 +19°C° 0 mm 0 m/S 748 mmHg 92%
06:00 +21°C° 0 mm 0 m/S 748 mmHg 84%
07:00 +23°C° 0 mm 0 m/S 748 mmHg 76%
08:00 +25°C° 0 mm 0 m/S 748 mmHg 68%
09:00 +29°C° 0 mm 1 m/S 748 mmHg 62%
10:00 +30°C° 0 mm 1 m/S 748 mmHg 56%
11:00 +32°C° 0 mm 2 m/S 747 mmHg 50%
12:00 +32°C° 0 mm 2 m/S 747 mmHg 47%
13:00 +34°C° 0 mm 3 m/S 746 mmHg 44%
14:00 +34°C° 0 mm 3 m/S 746 mmHg 42%
15:00 +30°C° 0.4 mm 3 m/S 746 mmHg 54%
16:00 +28°C° 0.4 mm 3 m/S 746 mmHg 67%
17:00 +25°C° 0.4 mm 3 m/S 746 mmHg 79%
18:00 +24°C° 0.4 mm 3 m/S 746 mmHg 84%
19:00 +23°C° 0.4 mm 2 m/S 746 mmHg 89%
20:00 +21°C° 0.4 mm 2 m/S 746 mmHg 95%
21:00 +21°C° 0 mm 1 m/S 746 mmHg 95%
22:00 +21°C° 0 mm 1 m/S 746 mmHg 96%
23:00 +20°C° 0 mm 1 m/S 746 mmHg 97%

26 Juni, Samstag

Zeit Temperatur Niederschläge Wind Luftdruck Luftfeuchtigkeit
00:00 +20°C° 0 mm 1 m/S 746 mmHg 97%
01:00 +20°C° 0 mm 1 m/S 746 mmHg 97%
02:00 +20°C° 0 mm 1 m/S 745 mmHg 97%
03:00 +20°C° 0 mm 1 m/S 745 mmHg 95%
04:00 +21°C° 0 mm 1 m/S 745 mmHg 94%
05:00 +22°C° 0 mm 1 m/S 745 mmHg 92%
06:00 +23°C° 0 mm 1 m/S 746 mmHg 84%
07:00 +25°C° 0 mm 1 m/S 746 mmHg 76%
08:00 +27°C° 0 mm 1 m/S 746 mmHg 67%
09:00 +29°C° 0 mm 1 m/S 746 mmHg 61%
10:00 +30°C° 0 mm 1 m/S 746 mmHg 55%
11:00 +32°C° 0 mm 1 m/S 746 mmHg 49%
12:00 +32°C° 0 mm 1 m/S 745 mmHg 47%
13:00 +33°C° 0 mm 1 m/S 745 mmHg 45%
14:00 +33°C° 0 mm 1 m/S 745 mmHg 42%
15:00 +31°C° 0 mm 1 m/S 744 mmHg 50%
16:00 +30°C° 0 mm 1 m/S 744 mmHg 57%
17:00 +28°C° 0 mm 2 m/S 744 mmHg 64%
18:00 +26°C° 0.5 mm 2 m/S 744 mmHg 72%
19:00 +25°C° 0.5 mm 2 m/S 744 mmHg 80%
20:00 +23°C° 0.5 mm 2 m/S 745 mmHg 88%
21:00 +23°C° 0.4 mm 2 m/S 745 mmHg 91%
22:00 +22°C° 0.4 mm 1 m/S 745 mmHg 93%
23:00 +19°C° 0.4 mm 0 m/S 745 mmHg 95%

27 Juni, Sonntag

Zeit Temperatur Niederschläge Wind Luftdruck Luftfeuchtigkeit
00:00 +21°C° 0.3 mm 1 m/S 745 mmHg 95%
01:00 +20°C° 0.3 mm 1 m/S 745 mmHg 96%
02:00 +20°C° 0.3 mm 1 m/S 745 mmHg 96%
03:00 +21°C° 0 mm 1 m/S 745 mmHg 95%
04:00 +21°C° 0 mm 1 m/S 745 mmHg 95%
05:00 +20°C° 0 mm 0 m/S 745 mmHg 94%
06:00 +23°C° 0.1 mm 1 m/S 745 mmHg 87%
07:00 +25°C° 0.1 mm 1 m/S 745 mmHg 80%
08:00 +26°C° 0.1 mm 1 m/S 745 mmHg 73%
09:00 +27°C° 0.7 mm 1 m/S 745 mmHg 70%
10:00 +28°C° 0.7 mm 1 m/S 745 mmHg 67%
11:00 +29°C° 0.7 mm 1 m/S 745 mmHg 64%
12:00 +29°C° 0.6 mm 2 m/S 745 mmHg 65%
13:00 +29°C° 0.6 mm 2 m/S 745 mmHg 66%
14:00 +29°C° 0.6 mm 3 m/S 745 mmHg 67%
15:00 +28°C° 0.3 mm 2 m/S 745 mmHg 69%
16:00 +27°C° 0.3 mm 2 m/S 745 mmHg 72%
17:00 +27°C° 0.3 mm 2 m/S 745 mmHg 75%
18:00 +26°C° 0.2 mm 2 m/S 745 mmHg 80%
19:00 +25°C° 0.2 mm 2 m/S 745 mmHg 84%
20:00 +24°C° 0.2 mm 2 m/S 745 mmHg 89%
21:00 +23°C° 0.3 mm 2 m/S 745 mmHg 91%
22:00 +21°C° 0.3 mm 2 m/S 745 mmHg 92%
23:00 +20°C° 0.3 mm 2 m/S 745 mmHg 94%
Mehr zeigen

Wir brauchen deine Erlaubnis

Meteoprog und unser Service Anbieter werden persönliche Daten aufbewahren, so wie Cookies, Geräte Bezeichnung oder ähnliche Technologien von deinem Gerät und Prozess, so wie Persönliche Daten Inhalte und Werbungen, genauso wie social Media und den Verkehr zu analysieren.

  • Aufbewahrung und/oder Zugang zu deiner Geräte Informationen.

    Cookies, Geräte Bezeichnung oder andere Informationen, können aufbewahrt oder Zugang zu deinem Gerät erhalten, für den Grund, der oben angegeben wird.

  • Personalisierte Werbung und Inhalte, Messungen, Einblick in das Publikum und Produkt Entwicklung.

    Werbungen und Inhalte können personalisiert werden, basierend auf ein Profil. Mehr Daten können besser personalisierte Werbungen und Inhalte hinzufügen. Werbung und Inhalte können gezeigt und gemessen werden. Einblicke über das Publikum, welche die Werbung gesehen haben und den Inhalt, können abgeleitet werden. So wie Daten können genutzt werden, um es zu verbessern oder die Benutzer Erfahrung zu verbessern das System und die Software.

Wenn du “Ich stimme zu” klickst, erlaubst du uns, die Cookies zu benutzen die Geräte Bezeichnung, den Web oder ähnliche Technologien zu benutzen. Deine Settings, können in deinem Gerät bei deinem Browser geändert werden.

Für den bestimmten Zweck, berechtigten Interessen beruhen darauf, mehr als auf den Inhalt. Du kannst mehr darüber in unseren Privaten und Cookie Politik lesen.